Location: D�rnast
(49.6426°N, 11.9755°E)
Time: 02:28:19
(UTC+00:00)

Meteor 1-27 - Pass Details

Date: 24 January 2021
Orbit: 837 x 893 km, 81.3° (Epoch: 24 February)

Event Time Altitude Azimuth Distance (km) Brightness Sun altitude
Rises 18:11:15 0° 349° (NNW) 3,438 7.5 -21.9°
Reaches altitude 10° 18:13:42 10° 351° (N) 2,490 6.7 -22.3°
Maximum altitude 18:19:20 72° 76° (ENE) 890 4.0 -23.2°
Enters shadow 18:23:15 20° 158° (SSE) 1,845 5.8 -23.8°
